Location: Shepherdstown, WV
(39.4326°N, 77.8042°W)
Time: 19:16:45
(UTC-04:00)

X-37B - Pass Details

Date: 29 June 2021
Orbit: 383 x 392 km, 45.0° (Epoch: 01 July)

Event Time Altitude Azimuth Distance (km) Brightness Sun altitude
Rises 23:16:14 0° 295° (WNW) 2,257 5.3 -21.5°
Reaches altitude 10° 23:18:23 10° 303° (WNW) 1,402 4.3 -21.7°
Enters shadow 23:21:19 40° 11° (N) 580 1.8 -22.0°
